Content
SEND FEEDBACK

Daily
Averages
Monthly
Summary
United States of America

CHICAGO, ILLINOIS


Home > North America > United States > Illinois
Elevation: 674 feet     Latitude: 41 59N     Longitude: 087 54W

WEATHER
 
SELECT A DAY
Number of Records: 195,010;   Date Range: 7/8/95 - 8/30/14
 
SHARE

PRINT THIS DATA

[ ← Previous Day ]
WEATHER ALMANAC - FEBRUARY 25, 2013
[ Next Day → ]
[ °C ]   °F
Weather ElementAverageHighLow
Temperature32.7 °F42.1 °F (1:52 pm)19.9 °F (4:52 am)
Dewpoint23.9 °F28.9 °F (8:52 pm)15.1 °F (4:52 am)
Humidity71.3 %89 % (5:52 am)51 % (11:52 am)
Barometer30.13 in30.21 in (5:52 am)30.01 in (11:52 pm)
Wind Speed4.5 mph8.1 mph (11:52 am)
Weather ElementAverage
Visibility8.1 mi
Wind DirectionNE (48.2 °)

Weather ElementTotal
Precipitation---
Heating Degree Days34 (Base 65)
Averaged from 22 records on February 25, 2013
WEATHER CONDITIONS BREAKOUT
WIND DIRECTION BREAKOUT
WEATHER BY HOUR - FEBRUARY 25, 2013
[ °C ]   °F
Local TimeTemperatureDewpointHumidityBarometerVisibilityWind DirectionWind SpeedGust SpeedPrecipitationEventsConditions
1:52 AM21.9 °F18.0 °F85 %30.17 in7.0 miCalmClear
2:52 AM21.0 °F18.0 °F88 %30.17 in6.0 miCalmClear
4:52 AM19.9 °F15.1 °F81 %30.18 in6.0 miCalmHaze
5:52 AM19.9 °F17.1 °F89 %30.21 in6.0 miCalmClear
6:52 AM19.9 °F16.0 °F85 %30.20 in5.0 miCalmClear
7:52 AM25.0 °F21.0 °F85 %30.21 in5.0 miCalmClear
8:52 AM32.0 °F26.1 °F79 %30.19 in6.0 miCalmHaze
9:52 AM35.1 °F24.1 °F64 %30.19 in7.0 miSSE (150°)5.8 mphClear
10:52 AM37.9 °F24.1 °F57 %30.17 in8.0 miVariable4.6 mphClear
11:52 AM39.9 °F23.0 °F51 %30.17 in10.0 miESE (110°)8.1 mphClear
12:52 PM41.0 °F24.1 °F51 %30.15 in10.0 miEast (80°)4.6 mphClear
1:52 PM42.1 °F25.0 °F51 %30.12 in10.0 miEast (80°)8.1 mphClear
2:52 PM39.9 °F26.1 °F58 %30.12 in9.0 miENE (70°)8.1 mphClear
3:52 PM39.0 °F26.1 °F60 %30.12 in9.0 miENE (70°)6.9 mphClear
4:52 PM36.0 °F26.1 °F67 %30.10 in8.0 miENE (60°)4.6 mphClear
5:52 PM35.1 °F27.0 °F72 %30.11 in8.0 miNE (50°)5.8 mphClear
6:52 PM35.1 °F28.0 °F76 %30.10 in8.0 miNE (50°)5.8 mphClear
7:52 PM35.1 °F27.0 °F72 %30.06 in10.0 miENE (60°)8.1 mphClear
8:52 PM36.0 °F28.9 °F76 %30.07 in10.0 miENE (60°)8.1 mphClear
9:52 PM36.0 °F28.9 °F76 %30.08 in10.0 miEast (80°)5.8 mphClear
10:52 PM36.0 °F28.0 °F73 %30.05 in10.0 miEast (80°)5.8 mphClear
11:52 PM36.0 °F28.0 °F73 %30.01 in10.0 miENE (60°)8.1 mphClear
Hourly data recorded from KPWK, located miles away from Chicago, Illinois







STORIES FROM OUR PARTNERS